User: anonymous
Location: Caltech
(34.1382°N, 118.1253°W)
Time: 14:32:18
(UTC-07:00)
Language:

ALOS - Orbit

View from above orbital plane
View from above orbital plane
View from above satellite
View from above satellite

Ground track
Ground track

The orbit data is extracted from the following two-line orbital elements,

1 28931U 06002A   14114.40992266  .00001657  00000-0  33743-3 0    83
2 28931 097.9888 174.3443 0001734 044.7835 315.3997 14.61085524439522
Epoch (UTC): 24 April 2014 09:50:17
Eccentricity: 0.0001734
inclination: 97.9888°
perigee height: 688 km
apogee height: 691 km
right ascension of ascending node: 174.3443°
argument of perigee: 44.7835°
revolutions per day: 14.61085524
mean anomaly at epoch: 315.3997°
orbit number at epoch: 43952

The dashed part of the orbit path shows where the satellite is in the earth's shadow,  

DLR